Weather in Pomoryany

Ukraine / Lviv District     49°38′36″N   24°56′17″E
temp.,
°C
wind,
m/s
gust,
m/s
humid.,
%
clouds,
%
prec.,
mm/h
press.,
hPa
HPBL,
m
31 july, sat
sat3100:00+19s34700 0.0 101154
03:00+18s37801 0.0 1010114
06:00+17ssw34875 0.0 101052
09:00+22sw34676 0.0 1010236
12:00+26ssw345214 0.0 1010471
15:00+29ssw444271 0.0 10091676
18:00+28sse45471 0.0 10071489
21:00+18nw71091100 2.2 1010395
1 august, sun
sun100:00+17n2498100 7.1 1011210
03:00+16wsw2498100 7.5 1011102
06:00+15wnw129813 0.0 101116
09:00+19w11820 0.0 1011251
12:00+24se22600 0.0 1011785
15:00+27sse4547100 0.0 10091101
18:00+27se69535 0.0 1007722
21:00+24s91664100 0.1 1008718
2 august, mon
mon200:00+20sse61684100 1.1 1006410
03:00+18ssw4890100 1.1 1006136
06:00+17wnw36921 0.0 1006103
09:00+19wnw578655 0.0 1008509
12:00+19wnw6882100 0.0 1010716
15:00+18nw687686 0.1 1011651
18:00+17wnw567896 0.2 1012753
21:00+16wnw478680 0.3 1013384
3 august, tue
tue300:00+13w239618 0.0 101462
03:00+12w249610 0.0 101583
06:00+12wsw22965 0.0 101637
09:00+17wnw35760 0.0 1016388
12:00+21wnw44590 0.0 10161224
15:00+22wnw565337 0.1 10151878
18:00+21nw356263 0.0 1015328
21:00+17sse11720 0.0 101611
4 august, wed
wed400:00+16se22745 0.0 101612
03:00+15se358088 0.1 101686
06:00+14sse47835 0.1 1016112
09:00+20s69695 0.1 1015368
12:00+24s5652100 0.0 1015742
15:00+27ssw354096 0.0 10142206
18:00+21wsw6776100 1.3 1015324
21:00+19se4773100 2.4 101498